Year,Month,Day,Hour,Minute,Value (Times are PST for temperature in C)
2014,06,07,00,00,11.60
2014,06,07,00,01,11.60
2014,06,07,00,02,11.60
2014,06,07,00,03,11.60
2014,06,07,00,04,11.60
2014,06,07,00,05,11.60
2014,06,07,00,06,11.60
2014,06,07,00,07,11.60
2014,06,07,00,08,11.60
2014,06,07,00,09,11.60
2014,06,07,00,10,11.60
2014,06,07,00,11,11.60
2014,06,07,00,12,11.50
2014,06,07,00,13,11.50
2014,06,07,00,14,11.50
2014,06,07,00,15,11.50
2014,06,07,00,16,11.50
2014,06,07,00,17,11.40
2014,06,07,00,18,11.40
2014,06,07,00,19,11.40
2014,06,07,00,20,11.40
2014,06,07,00,21,11.40
2014,06,07,00,22,11.40
2014,06,07,00,23,11.40
2014,06,07,00,24,11.40
2014,06,07,00,25,11.40
2014,06,07,00,26,11.40
2014,06,07,00,27,11.40
2014,06,07,00,28,11.40
2014,06,07,00,29,11.40
2014,06,07,00,30,11.40
2014,06,07,00,31,11.40
2014,06,07,00,32,11.40
2014,06,07,00,33,11.40
2014,06,07,00,34,11.40
2014,06,07,00,35,11.40
2014,06,07,00,36,11.40
2014,06,07,00,37,11.40
2014,06,07,00,38,11.40
2014,06,07,00,39,11.40
2014,06,07,00,40,11.40
2014,06,07,00,41,11.40
2014,06,07,00,42,11.40
2014,06,07,00,43,11.40
2014,06,07,00,44,11.40
2014,06,07,00,45,11.40
2014,06,07,00,46,11.40
2014,06,07,00,47,11.40
2014,06,07,00,48,11.40
2014,06,07,00,49,11.40
2014,06,07,00,50,11.40
2014,06,07,00,51,11.40
2014,06,07,00,52,11.40
2014,06,07,00,53,11.40
2014,06,07,00,54,11.30
2014,06,07,00,55,11.30
2014,06,07,00,56,11.30
2014,06,07,00,57,11.30
2014,06,07,00,58,11.30
2014,06,07,00,59,11.30
2014,06,07,01,00,11.30
2014,06,07,01,01,11.30
2014,06,07,01,02,11.30
2014,06,07,01,03,11.30
2014,06,07,01,04,11.30
2014,06,07,01,05,11.20
2014,06,07,01,06,11.20
2014,06,07,01,07,11.20
2014,06,07,01,08,11.20
2014,06,07,01,09,11.20
2014,06,07,01,10,11.20
2014,06,07,01,11,11.20
2014,06,07,01,12,11.20
2014,06,07,01,13,11.20
2014,06,07,01,14,11.20
2014,06,07,01,15,11.20
2014,06,07,01,16,11.20
2014,06,07,01,17,11.20
2014,06,07,01,18,11.20
2014,06,07,01,19,11.20
2014,06,07,01,20,11.20
2014,06,07,01,21,11.20
2014,06,07,01,22,11.20
2014,06,07,01,23,11.20
2014,06,07,01,24,11.20
2014,06,07,01,25,11.20
2014,06,07,01,26,11.20
2014,06,07,01,27,11.20
2014,06,07,01,28,11.20
2014,06,07,01,29,11.20
2014,06,07,01,30,11.10
2014,06,07,01,31,11.10
2014,06,07,01,32,11.10
2014,06,07,01,33,11.10
2014,06,07,01,34,11.10
2014,06,07,01,35,11.10
2014,06,07,01,36,11.10
2014,06,07,01,37,11.10
2014,06,07,01,38,11.10
2014,06,07,01,39,11.10
2014,06,07,01,40,11.00
2014,06,07,01,41,11.00
2014,06,07,01,42,11.00
2014,06,07,01,43,11.00
2014,06,07,01,44,11.00
2014,06,07,01,45,11.00
2014,06,07,01,46,10.90
2014,06,07,01,47,10.90
2014,06,07,01,48,10.90
2014,06,07,01,49,10.90
2014,06,07,01,50,10.90
2014,06,07,01,51,10.90
2014,06,07,01,52,10.90
2014,06,07,01,53,10.90
2014,06,07,01,54,10.90
2014,06,07,01,55,10.90
2014,06,07,01,56,10.90
2014,06,07,01,57,10.90
2014,06,07,01,58,10.90
2014,06,07,01,59,10.80
2014,06,07,02,00,10.80
2014,06,07,02,01,10.80
2014,06,07,02,02,10.80
2014,06,07,02,03,10.80
2014,06,07,02,04,10.80
2014,06,07,02,05,10.80
2014,06,07,02,06,10.80
2014,06,07,02,07,10.80
2014,06,07,02,08,10.80
2014,06,07,02,09,10.80
2014,06,07,02,10,10.70
2014,06,07,02,11,10.70
2014,06,07,02,12,10.70
2014,06,07,02,13,10.70
2014,06,07,02,14,10.70
2014,06,07,02,15,10.70
2014,06,07,02,16,10.70
2014,06,07,02,17,10.70
2014,06,07,02,18,10.70
2014,06,07,02,19,10.70
2014,06,07,02,20,10.70
2014,06,07,02,21,10.70
2014,06,07,02,22,10.70
2014,06,07,02,23,10.70
2014,06,07,02,24,10.60
2014,06,07,02,25,10.60
2014,06,07,02,26,10.60
2014,06,07,02,27,10.60
2014,06,07,02,28,10.60
2014,06,07,02,29,10.60
2014,06,07,02,30,10.60
2014,06,07,02,31,10.60
2014,06,07,02,32,10.60
2014,06,07,02,33,10.60
2014,06,07,02,34,10.60
2014,06,07,02,35,10.50
2014,06,07,02,36,10.50
2014,06,07,02,37,10.50
2014,06,07,02,38,10.50
2014,06,07,02,39,10.50
2014,06,07,02,40,10.50
2014,06,07,02,41,10.50
2014,06,07,02,42,10.50
2014,06,07,02,43,10.50
2014,06,07,02,44,10.40
2014,06,07,02,45,10.40
2014,06,07,02,46,10.40
2014,06,07,02,47,10.40
2014,06,07,02,48,10.40
2014,06,07,02,49,10.40
2014,06,07,02,50,10.40
2014,06,07,02,51,10.40
2014,06,07,02,52,10.40
2014,06,07,02,53,10.40
2014,06,07,02,54,10.30
2014,06,07,02,55,10.30
2014,06,07,02,56,10.30
2014,06,07,02,57,10.30
2014,06,07,02,58,10.40
2014,06,07,02,59,10.30
2014,06,07,03,00,10.30
2014,06,07,03,01,10.30
2014,06,07,03,02,10.30
2014,06,07,03,03,10.30
2014,06,07,03,04,10.30
2014,06,07,03,05,10.30
2014,06,07,03,06,10.40
2014,06,07,03,07,10.40
2014,06,07,03,08,10.40
2014,06,07,03,09,10.40
2014,06,07,03,10,10.40
2014,06,07,03,11,10.40
2014,06,07,03,12,10.40
2014,06,07,03,13,10.40
2014,06,07,03,14,10.40
2014,06,07,03,15,10.40
2014,06,07,03,16,10.40
2014,06,07,03,17,10.40
2014,06,07,03,18,10.40
2014,06,07,03,19,10.40
2014,06,07,03,20,10.40
2014,06,07,03,21,10.40
2014,06,07,03,22,10.40
2014,06,07,03,23,10.40
2014,06,07,03,24,10.40
2014,06,07,03,25,10.40
2014,06,07,03,26,10.40
2014,06,07,03,27,10.40
2014,06,07,03,28,10.40
2014,06,07,03,29,10.40
2014,06,07,03,30,10.40
2014,06,07,03,31,10.40
2014,06,07,03,32,10.40
2014,06,07,03,33,10.50
2014,06,07,03,34,10.50
2014,06,07,03,35,10.50
2014,06,07,03,36,10.50
2014,06,07,03,37,10.50
2014,06,07,03,38,10.50
2014,06,07,03,39,10.50
2014,06,07,03,40,10.50
2014,06,07,03,41,10.60
2014,06,07,03,42,10.60
2014,06,07,03,43,10.60
2014,06,07,03,44,10.60
2014,06,07,03,45,10.60
2014,06,07,03,46,10.60
2014,06,07,03,47,10.60
2014,06,07,03,48,10.60
2014,06,07,03,49,10.60
2014,06,07,03,50,10.60
2014,06,07,03,51,10.60
2014,06,07,03,52,10.60
2014,06,07,03,53,10.60
2014,06,07,03,54,10.60
2014,06,07,03,55,10.60
2014,06,07,03,56,10.60
2014,06,07,03,57,10.60
2014,06,07,03,58,10.60
2014,06,07,03,59,10.60
2014,06,07,04,00,10.60
2014,06,07,04,01,10.60
2014,06,07,04,02,10.60
2014,06,07,04,03,10.60
2014,06,07,04,04,10.60
2014,06,07,04,05,10.60
2014,06,07,04,06,10.60
2014,06,07,04,07,10.60
2014,06,07,04,08,10.60
2014,06,07,04,09,10.60
2014,06,07,04,10,10.60
2014,06,07,04,11,10.60
2014,06,07,04,12,10.60
2014,06,07,04,13,10.60
2014,06,07,04,14,10.60
2014,06,07,04,15,10.60
2014,06,07,04,16,10.60
2014,06,07,04,17,10.60
2014,06,07,04,18,10.60
2014,06,07,04,19,10.60
2014,06,07,04,20,10.60
2014,06,07,04,21,10.60
2014,06,07,04,22,10.60
2014,06,07,04,23,10.60
2014,06,07,04,24,10.60
2014,06,07,04,25,10.70
2014,06,07,04,26,10.70
2014,06,07,04,27,10.70
2014,06,07,04,28,10.70
2014,06,07,04,29,10.70
2014,06,07,04,30,10.70
2014,06,07,04,31,10.70
2014,06,07,04,32,10.70
2014,06,07,04,33,10.70
2014,06,07,04,34,10.70
2014,06,07,04,35,10.70
2014,06,07,04,36,10.70
2014,06,07,04,37,10.70
2014,06,07,04,38,10.70
2014,06,07,04,39,10.70
2014,06,07,04,40,10.70
2014,06,07,04,41,10.70
2014,06,07,04,42,10.70
2014,06,07,04,43,10.70
2014,06,07,04,44,10.80
2014,06,07,04,45,10.80
2014,06,07,04,46,10.80
2014,06,07,04,47,10.80
2014,06,07,04,48,10.80
2014,06,07,04,49,10.80
2014,06,07,04,50,10.80
2014,06,07,04,51,10.80
2014,06,07,04,52,10.80
2014,06,07,04,53,10.80
2014,06,07,04,54,10.80
2014,06,07,04,55,10.80
2014,06,07,04,56,10.80
2014,06,07,04,57,10.80
2014,06,07,04,58,10.80
2014,06,07,04,59,10.80
2014,06,07,05,00,10.80
2014,06,07,05,01,10.80
2014,06,07,05,02,10.80
2014,06,07,05,03,10.90
2014,06,07,05,04,10.90
2014,06,07,05,05,10.90
2014,06,07,05,06,10.90
2014,06,07,05,07,10.90
2014,06,07,05,08,10.90
2014,06,07,05,09,10.90
2014,06,07,05,10,10.90
2014,06,07,05,11,10.90
2014,06,07,05,12,10.90
2014,06,07,05,13,10.90
2014,06,07,05,14,10.90
2014,06,07,05,15,10.90
2014,06,07,05,16,10.90
2014,06,07,05,17,10.90
2014,06,07,05,18,10.90
2014,06,07,05,19,10.90
2014,06,07,05,20,10.90
2014,06,07,05,21,10.90
2014,06,07,05,22,10.90
2014,06,07,05,23,10.90
2014,06,07,05,24,11.00
2014,06,07,05,25,11.00
2014,06,07,05,26,11.00
2014,06,07,05,27,11.00
2014,06,07,05,28,11.00
2014,06,07,05,29,11.00
2014,06,07,05,30,10.90
2014,06,07,05,31,11.00
2014,06,07,05,32,11.00
2014,06,07,05,33,11.00
2014,06,07,05,34,11.00
2014,06,07,05,35,11.00
2014,06,07,05,36,11.00
2014,06,07,05,37,11.00
2014,06,07,05,38,11.00
2014,06,07,05,39,11.00
2014,06,07,05,40,11.00
2014,06,07,05,41,11.00
2014,06,07,05,42,11.00
2014,06,07,05,43,11.00
2014,06,07,05,44,11.00
2014,06,07,05,45,11.00
2014,06,07,05,46,11.00
2014,06,07,05,47,11.00
2014,06,07,05,48,11.00
2014,06,07,05,49,11.00
2014,06,07,05,50,11.00
2014,06,07,05,51,11.00
2014,06,07,05,52,10.90
2014,06,07,05,53,10.90
2014,06,07,05,54,10.90
2014,06,07,05,55,10.90
2014,06,07,05,56,10.90
2014,06,07,05,57,10.90
2014,06,07,05,58,10.90
2014,06,07,05,59,10.90
2014,06,07,06,00,10.90
2014,06,07,06,01,10.90
2014,06,07,06,02,10.90
2014,06,07,06,03,10.90
2014,06,07,06,04,10.90
2014,06,07,06,05,10.90
2014,06,07,06,06,10.90
2014,06,07,06,07,10.90
2014,06,07,06,08,10.90
2014,06,07,06,09,10.90
2014,06,07,06,10,10.90
2014,06,07,06,11,10.90
2014,06,07,06,12,10.90
2014,06,07,06,13,10.90
2014,06,07,06,14,10.90
2014,06,07,06,15,10.90
2014,06,07,06,16,10.90
2014,06,07,06,17,10.90
2014,06,07,06,18,10.90
2014,06,07,06,19,10.90
2014,06,07,06,20,10.90
2014,06,07,06,21,10.90
2014,06,07,06,22,10.90
2014,06,07,06,23,10.90
2014,06,07,06,24,10.90
2014,06,07,06,25,10.90
2014,06,07,06,26,10.90
2014,06,07,06,27,10.90
2014,06,07,06,28,10.90
2014,06,07,06,29,10.90
2014,06,07,06,30,10.90
2014,06,07,06,31,10.90
2014,06,07,06,32,10.90
2014,06,07,06,33,10.90
2014,06,07,06,34,10.90
2014,06,07,06,35,10.90
2014,06,07,06,36,10.90
2014,06,07,06,37,10.90
2014,06,07,06,38,10.90
2014,06,07,06,39,10.90
2014,06,07,06,40,10.90
2014,06,07,06,41,10.90
2014,06,07,06,42,10.90
2014,06,07,06,43,10.90
2014,06,07,06,44,10.90
2014,06,07,06,45,10.90
2014,06,07,06,46,10.90
2014,06,07,06,47,10.90
2014,06,07,06,48,10.90
2014,06,07,06,49,10.90
2014,06,07,06,50,10.90
2014,06,07,06,51,10.90
2014,06,07,06,52,10.90
2014,06,07,06,53,10.90
2014,06,07,06,54,11.00
2014,06,07,06,55,11.00
2014,06,07,06,56,11.00
2014,06,07,06,57,11.00
2014,06,07,06,58,11.00
2014,06,07,06,59,11.00
2014,06,07,07,00,10.90
2014,06,07,07,01,10.90
2014,06,07,07,02,10.90
2014,06,07,07,03,10.90
2014,06,07,07,04,10.90
2014,06,07,07,05,10.90
2014,06,07,07,06,10.90
2014,06,07,07,07,10.90
2014,06,07,07,08,11.00
2014,06,07,07,09,10.90
2014,06,07,07,10,10.90
2014,06,07,07,11,10.90
2014,06,07,07,12,10.90
2014,06,07,07,13,10.90
2014,06,07,07,14,10.90
2014,06,07,07,15,10.90
2014,06,07,07,16,10.90
2014,06,07,07,17,11.00
2014,06,07,07,18,11.00
2014,06,07,07,19,11.00
2014,06,07,07,20,11.00
2014,06,07,07,21,11.00
2014,06,07,07,22,11.00
2014,06,07,07,23,11.10
2014,06,07,07,24,11.10
2014,06,07,07,25,11.10
2014,06,07,07,26,11.10
2014,06,07,07,27,11.10
2014,06,07,07,28,11.10
2014,06,07,07,29,11.10
2014,06,07,07,30,11.20
2014,06,07,07,31,11.20
2014,06,07,07,32,11.20
2014,06,07,07,33,11.30
2014,06,07,07,34,11.30
2014,06,07,07,35,11.30
2014,06,07,07,36,11.30
2014,06,07,07,37,11.30
2014,06,07,07,38,11.30
2014,06,07,07,39,11.30
2014,06,07,07,40,11.30
2014,06,07,07,41,11.30
2014,06,07,07,42,11.30
2014,06,07,07,43,11.40
2014,06,07,07,44,11.40
2014,06,07,07,45,11.40
2014,06,07,07,46,11.40
2014,06,07,07,47,11.40
2014,06,07,07,48,11.40
2014,06,07,07,49,11.40
2014,06,07,07,50,11.40
2014,06,07,07,51,11.40
2014,06,07,07,52,11.40
2014,06,07,07,53,11.40
2014,06,07,07,54,11.40
2014,06,07,07,55,11.40
2014,06,07,07,56,11.40
2014,06,07,07,57,11.50
2014,06,07,07,58,11.50
2014,06,07,07,59,11.50
2014,06,07,08,00,11.60
2014,06,07,08,01,11.60
2014,06,07,08,02,11.60
2014,06,07,08,03,11.60
2014,06,07,08,04,11.60
2014,06,07,08,05,11.70
2014,06,07,08,06,11.70
2014,06,07,08,07,11.70
2014,06,07,08,08,11.70
2014,06,07,08,09,11.70
2014,06,07,08,10,11.70
2014,06,07,08,11,11.70
2014,06,07,08,12,11.70
2014,06,07,08,13,11.80
2014,06,07,08,14,11.80
2014,06,07,08,15,11.80
2014,06,07,08,16,11.80
2014,06,07,08,17,11.90
2014,06,07,08,18,11.90
2014,06,07,08,19,12.00
2014,06,07,08,20,12.00
2014,06,07,08,21,12.00
2014,06,07,08,22,12.10
2014,06,07,08,23,12.10
2014,06,07,08,24,12.10
2014,06,07,08,25,12.10
2014,06,07,08,26,12.10
2014,06,07,08,27,12.10
2014,06,07,08,28,12.10
2014,06,07,08,29,12.10
2014,06,07,08,30,12.20
2014,06,07,08,31,12.20
2014,06,07,08,32,12.20
2014,06,07,08,33,12.20
2014,06,07,08,34,12.30
2014,06,07,08,35,12.40
2014,06,07,08,36,12.40
2014,06,07,08,37,12.50
2014,06,07,08,38,12.50
2014,06,07,08,39,12.60
2014,06,07,08,40,12.60
2014,06,07,08,41,12.60
2014,06,07,08,42,12.60
2014,06,07,08,43,12.70
2014,06,07,08,44,12.70
2014,06,07,08,45,12.70
2014,06,07,08,46,12.70
2014,06,07,08,47,12.70
2014,06,07,08,48,12.70
2014,06,07,08,49,12.70
2014,06,07,08,50,12.70
2014,06,07,08,51,12.70
2014,06,07,08,52,12.70
2014,06,07,08,53,12.70
2014,06,07,08,54,12.80
2014,06,07,08,55,12.80
2014,06,07,08,56,12.80
2014,06,07,08,57,12.90
2014,06,07,08,58,13.00
2014,06,07,08,59,13.10
2014,06,07,09,00,13.10
2014,06,07,09,01,13.10
2014,06,07,09,02,13.10
2014,06,07,09,03,13.10
2014,06,07,09,04,13.20
2014,06,07,09,05,13.30
2014,06,07,09,06,13.30
2014,06,07,09,07,13.30
2014,06,07,09,08,13.30
2014,06,07,09,09,13.30
2014,06,07,09,10,13.40
2014,06,07,09,11,13.40
2014,06,07,09,12,13.40
2014,06,07,09,13,13.40
2014,06,07,09,14,13.40
2014,06,07,09,15,13.40
2014,06,07,09,16,13.40
2014,06,07,09,17,13.50
2014,06,07,09,18,13.50
2014,06,07,09,19,13.60
2014,06,07,09,20,13.70
2014,06,07,09,21,13.70
2014,06,07,09,22,13.80
2014,06,07,09,23,13.90
2014,06,07,09,24,13.90
2014,06,07,09,25,14.00
2014,06,07,09,26,14.00
2014,06,07,09,27,14.10
2014,06,07,09,28,14.10
2014,06,07,09,29,14.10
2014,06,07,09,30,14.20
2014,06,07,09,31,14.20
2014,06,07,09,32,14.20
2014,06,07,09,33,14.20
2014,06,07,09,34,14.20
2014,06,07,09,35,14.30
2014,06,07,09,36,14.30
2014,06,07,09,37,14.30
2014,06,07,09,38,14.40
2014,06,07,09,39,14.40
2014,06,07,09,40,14.40
2014,06,07,09,41,14.50
2014,06,07,09,42,14.50
2014,06,07,09,43,14.60
2014,06,07,09,44,14.60
2014,06,07,09,45,14.60
2014,06,07,09,46,14.60
2014,06,07,09,47,14.70
2014,06,07,09,48,14.80
2014,06,07,09,49,14.80
2014,06,07,09,50,14.80
2014,06,07,09,51,14.80
2014,06,07,09,52,14.80
2014,06,07,09,53,14.80
2014,06,07,09,54,14.80
2014,06,07,09,55,14.90
2014,06,07,09,56,14.90
2014,06,07,09,57,14.90
2014,06,07,09,58,15.00
2014,06,07,09,59,14.90
2014,06,07,10,00,15.00
2014,06,07,10,01,15.10
2014,06,07,10,02,15.10
2014,06,07,10,03,15.20
2014,06,07,10,04,15.20
2014,06,07,10,05,15.20
2014,06,07,10,06,15.20
2014,06,07,10,07,15.40
2014,06,07,10,08,15.50
2014,06,07,10,09,15.50
2014,06,07,10,10,15.50
2014,06,07,10,11,15.50
2014,06,07,10,12,15.60
2014,06,07,10,13,15.60
2014,06,07,10,14,15.60
2014,06,07,10,15,15.60
2014,06,07,10,16,15.60
2014,06,07,10,17,15.60
2014,06,07,10,18,15.70
2014,06,07,10,19,15.70
2014,06,07,10,20,15.60
2014,06,07,10,21,15.60
2014,06,07,10,22,15.60
2014,06,07,10,23,15.60
2014,06,07,10,24,15.70
2014,06,07,10,25,15.70
2014,06,07,10,26,15.70
2014,06,07,10,27,15.70
2014,06,07,10,28,15.80
2014,06,07,10,29,15.80
2014,06,07,10,30,15.80
2014,06,07,10,31,15.90
2014,06,07,10,32,15.90
2014,06,07,10,33,15.90
2014,06,07,10,34,15.80
2014,06,07,10,35,15.80
2014,06,07,10,36,15.80
2014,06,07,10,37,15.80
2014,06,07,10,38,15.70
2014,06,07,10,39,15.70
2014,06,07,10,40,15.60
2014,06,07,10,41,15.60
2014,06,07,10,42,15.70
2014,06,07,10,43,15.80
2014,06,07,10,44,15.80
2014,06,07,10,45,15.80
2014,06,07,10,46,15.80
2014,06,07,10,47,15.90
2014,06,07,10,48,15.90
2014,06,07,10,49,16.00
2014,06,07,10,50,16.00
2014,06,07,10,51,15.90
2014,06,07,10,52,15.90
2014,06,07,10,53,15.90
2014,06,07,10,54,15.90
2014,06,07,10,55,15.90
2014,06,07,10,56,15.90
2014,06,07,10,57,16.00
2014,06,07,10,58,16.00
2014,06,07,10,59,16.10
2014,06,07,11,00,16.10
2014,06,07,11,01,16.10
2014,06,07,11,02,16.20
2014,06,07,11,03,16.20
2014,06,07,11,04,16.30
2014,06,07,11,05,16.30
2014,06,07,11,06,16.40
2014,06,07,11,07,16.50
2014,06,07,11,08,16.60
2014,06,07,11,09,16.70
2014,06,07,11,10,16.70
2014,06,07,11,11,16.70
2014,06,07,11,12,16.60
2014,06,07,11,13,16.60
2014,06,07,11,14,16.60
2014,06,07,11,15,16.60
2014,06,07,11,16,16.60
2014,06,07,11,17,16.60
2014,06,07,11,18,16.60
2014,06,07,11,19,16.60
2014,06,07,11,20,16.60
2014,06,07,11,21,16.50
2014,06,07,11,22,16.50
2014,06,07,11,23,16.50
2014,06,07,11,24,16.40
2014,06,07,11,25,16.40
2014,06,07,11,26,16.40
2014,06,07,11,27,16.40
2014,06,07,11,28,16.40
2014,06,07,11,29,16.30
2014,06,07,11,30,16.30
2014,06,07,11,31,16.30
2014,06,07,11,32,16.30
2014,06,07,11,33,16.30
2014,06,07,11,34,16.40
2014,06,07,11,35,16.40
2014,06,07,11,36,16.40
2014,06,07,11,37,16.50
2014,06,07,11,38,16.50
2014,06,07,11,39,16.50
2014,06,07,11,40,16.60
2014,06,07,11,41,16.60
2014,06,07,11,42,16.60
2014,06,07,11,43,16.70
2014,06,07,11,44,16.70
2014,06,07,11,45,16.70
2014,06,07,11,46,16.60
2014,06,07,11,47,16.60
2014,06,07,11,48,16.60
2014,06,07,11,49,16.50
2014,06,07,11,50,16.50
2014,06,07,11,51,16.40
2014,06,07,11,52,16.40
2014,06,07,11,53,16.40
2014,06,07,11,54,16.40
2014,06,07,11,55,16.40
2014,06,07,11,56,16.40
2014,06,07,11,57,16.40
2014,06,07,11,58,16.40
2014,06,07,11,59,16.50
2014,06,07,12,00,16.50
2014,06,07,12,01,16.50
2014,06,07,12,02,16.60
2014,06,07,12,03,16.60
2014,06,07,12,04,16.60
2014,06,07,12,05,16.60
2014,06,07,12,06,16.70
2014,06,07,12,07,16.70
2014,06,07,12,08,16.70
2014,06,07,12,09,16.70
2014,06,07,12,10,16.80
2014,06,07,12,11,16.80
2014,06,07,12,12,16.90
2014,06,07,12,13,16.90
2014,06,07,12,14,17.00
2014,06,07,12,15,17.10
2014,06,07,12,16,17.00
2014,06,07,12,17,17.10
2014,06,07,12,18,17.10
2014,06,07,12,19,17.30
2014,06,07,12,20,17.30
2014,06,07,12,21,17.40
2014,06,07,12,22,17.30
2014,06,07,12,23,17.20
2014,06,07,12,24,17.10
2014,06,07,12,25,17.00
2014,06,07,12,26,17.00
2014,06,07,12,27,17.00
2014,06,07,12,28,17.00
2014,06,07,12,29,17.10
2014,06,07,12,30,17.20
2014,06,07,12,31,17.20
2014,06,07,12,32,17.20
2014,06,07,12,33,17.20
2014,06,07,12,34,17.30
2014,06,07,12,35,17.30
2014,06,07,12,36,17.40
2014,06,07,12,37,17.40
2014,06,07,12,38,17.30
2014,06,07,12,39,17.30
2014,06,07,12,40,17.40
2014,06,07,12,41,17.40
2014,06,07,12,42,17.40
2014,06,07,12,43,17.50
2014,06,07,12,44,17.60
2014,06,07,12,45,17.60
2014,06,07,12,46,17.70
2014,06,07,12,47,17.70
2014,06,07,12,48,17.80
2014,06,07,12,49,17.90
2014,06,07,12,50,18.00
2014,06,07,12,51,18.10
2014,06,07,12,52,18.00
2014,06,07,12,53,17.90
2014,06,07,12,54,17.90
2014,06,07,12,55,17.90
2014,06,07,12,56,18.00
2014,06,07,12,57,18.10
2014,06,07,12,58,18.20
2014,06,07,12,59,18.20
2014,06,07,13,00,18.30
2014,06,07,13,01,18.30
2014,06,07,13,02,18.20
2014,06,07,13,03,18.20
2014,06,07,13,04,18.20
2014,06,07,13,05,18.20
2014,06,07,13,06,18.10
2014,06,07,13,07,18.00
2014,06,07,13,08,18.00
2014,06,07,13,09,17.90
2014,06,07,13,10,17.90
2014,06,07,13,11,18.00
2014,06,07,13,12,18.10
2014,06,07,13,13,18.10
2014,06,07,13,14,18.00
2014,06,07,13,15,17.90
2014,06,07,13,16,17.90
2014,06,07,13,17,17.80
2014,06,07,13,18,17.90
2014,06,07,13,19,17.90
2014,06,07,13,20,17.80
2014,06,07,13,21,17.80
2014,06,07,13,22,17.90
2014,06,07,13,23,17.90
2014,06,07,13,24,17.90
2014,06,07,13,25,17.90
2014,06,07,13,26,18.00
2014,06,07,13,27,18.10
2014,06,07,13,28,18.20
2014,06,07,13,29,18.20
2014,06,07,13,30,18.20
2014,06,07,13,31,18.10
2014,06,07,13,32,18.00
2014,06,07,13,33,17.90
2014,06,07,13,34,17.90
2014,06,07,13,35,18.00
2014,06,07,13,36,18.10
2014,06,07,13,37,18.10
2014,06,07,13,38,18.20
2014,06,07,13,39,18.20
2014,06,07,13,40,18.20
2014,06,07,13,41,18.20
2014,06,07,13,42,18.20
2014,06,07,13,43,18.10
2014,06,07,13,44,18.10
2014,06,07,13,45,18.10
2014,06,07,13,46,18.20
2014,06,07,13,47,18.20
2014,06,07,13,48,18.20
2014,06,07,13,49,18.20
2014,06,07,13,50,18.20
2014,06,07,13,51,18.20
2014,06,07,13,52,18.20
2014,06,07,13,53,18.20
2014,06,07,13,54,18.30
2014,06,07,13,55,18.40
2014,06,07,13,56,18.50
2014,06,07,13,57,18.60
2014,06,07,13,58,18.50
2014,06,07,13,59,18.40
2014,06,07,14,00,18.40
2014,06,07,14,01,18.40
2014,06,07,14,02,18.40
2014,06,07,14,03,18.40
2014,06,07,14,04,18.30
2014,06,07,14,05,18.30
2014,06,07,14,06,18.20
2014,06,07,14,07,18.20
2014,06,07,14,08,18.20
2014,06,07,14,09,18.20
2014,06,07,14,10,18.20
2014,06,07,14,11,18.10
2014,06,07,14,12,18.10
2014,06,07,14,13,18.20
2014,06,07,14,14,18.20
2014,06,07,14,15,18.30
2014,06,07,14,16,18.20
2014,06,07,14,17,18.20
2014,06,07,14,18,18.20
2014,06,07,14,19,18.30
2014,06,07,14,20,18.50
2014,06,07,14,21,18.50
2014,06,07,14,22,18.40
2014,06,07,14,23,18.30
2014,06,07,14,24,18.30
2014,06,07,14,25,18.20
2014,06,07,14,26,18.20
2014,06,07,14,27,18.10
2014,06,07,14,28,18.10
2014,06,07,14,29,18.00
2014,06,07,14,30,18.00
2014,06,07,14,31,17.90
2014,06,07,14,32,17.90
2014,06,07,14,33,17.80
2014,06,07,14,34,17.80
2014,06,07,14,35,17.80
2014,06,07,14,36,17.80
2014,06,07,14,37,17.70
2014,06,07,14,38,17.80
2014,06,07,14,39,17.80
2014,06,07,14,40,17.80
2014,06,07,14,41,17.80
2014,06,07,14,42,17.70
2014,06,07,14,43,17.70
2014,06,07,14,44,17.70
2014,06,07,14,45,17.60
2014,06,07,14,46,17.60
2014,06,07,14,47,17.60
2014,06,07,14,48,17.70
2014,06,07,14,49,17.70
2014,06,07,14,50,17.80
2014,06,07,14,51,17.80
2014,06,07,14,52,17.90
2014,06,07,14,53,17.90
2014,06,07,14,54,18.00
2014,06,07,14,55,18.10
2014,06,07,14,56,18.10
2014,06,07,14,57,18.10
2014,06,07,14,58,18.10
2014,06,07,14,59,18.10
2014,06,07,15,00,18.10
2014,06,07,15,01,18.10
2014,06,07,15,02,18.10
2014,06,07,15,03,18.00
2014,06,07,15,04,18.00
2014,06,07,15,05,18.10
2014,06,07,15,06,18.10
2014,06,07,15,07,18.10
2014,06,07,15,08,18.10
2014,06,07,15,09,18.10
2014,06,07,15,10,18.00
2014,06,07,15,11,18.00
2014,06,07,15,12,18.00
2014,06,07,15,13,18.00
2014,06,07,15,14,17.90
2014,06,07,15,15,17.90
2014,06,07,15,16,17.90
2014,06,07,15,17,18.00
2014,06,07,15,18,18.10
2014,06,07,15,19,18.10
2014,06,07,15,20,18.00
2014,06,07,15,21,17.80
2014,06,07,15,22,17.70
2014,06,07,15,23,17.70
2014,06,07,15,24,17.70
2014,06,07,15,25,17.70
2014,06,07,15,26,17.60
2014,06,07,15,27,17.60
2014,06,07,15,28,17.30
2014,06,07,15,29,17.10
2014,06,07,15,30,16.90
2014,06,07,15,31,16.80
2014,06,07,15,32,16.60
2014,06,07,15,33,16.50
2014,06,07,15,34,16.40
2014,06,07,15,35,16.40
2014,06,07,15,36,16.40
2014,06,07,15,37,16.40
2014,06,07,15,38,16.40
2014,06,07,15,39,16.40
2014,06,07,15,40,16.30
2014,06,07,15,41,16.30
2014,06,07,15,42,16.30
2014,06,07,15,43,16.30
2014,06,07,15,44,16.20
2014,06,07,15,45,16.10
2014,06,07,15,46,16.10
2014,06,07,15,47,16.00
2014,06,07,15,48,15.90
2014,06,07,15,49,15.90
2014,06,07,15,50,15.90
2014,06,07,15,51,15.90
2014,06,07,15,52,15.90
2014,06,07,15,53,15.80
2014,06,07,15,54,15.80
2014,06,07,15,55,15.80
2014,06,07,15,56,15.80
2014,06,07,15,57,15.70
2014,06,07,15,58,15.70
2014,06,07,15,59,15.70
2014,06,07,16,00,15.70
2014,06,07,16,01,15.70
2014,06,07,16,02,15.70
2014,06,07,16,03,15.80
2014,06,07,16,04,15.80
2014,06,07,16,05,15.80
2014,06,07,16,06,15.80
2014,06,07,16,07,15.80
2014,06,07,16,08,15.80
2014,06,07,16,09,15.80
2014,06,07,16,10,15.80
2014,06,07,16,11,15.80
2014,06,07,16,12,15.80
2014,06,07,16,13,15.90
2014,06,07,16,14,16.00
2014,06,07,16,15,16.00
2014,06,07,16,16,16.00
2014,06,07,16,17,15.90
2014,06,07,16,18,15.90
2014,06,07,16,19,16.00
2014,06,07,16,20,16.00
2014,06,07,16,21,16.00
2014,06,07,16,22,16.00
2014,06,07,16,23,16.10
2014,06,07,16,24,16.10
2014,06,07,16,25,16.10
2014,06,07,16,26,16.10
2014,06,07,16,27,16.20
2014,06,07,16,28,16.30
2014,06,07,16,29,16.40
2014,06,07,16,30,16.40
2014,06,07,16,31,16.50
2014,06,07,16,32,16.50
2014,06,07,16,33,16.40
2014,06,07,16,34,16.40
2014,06,07,16,35,16.40
2014,06,07,16,36,16.40
2014,06,07,16,37,16.40
2014,06,07,16,38,16.40
2014,06,07,16,39,16.40
2014,06,07,16,40,16.40
2014,06,07,16,41,16.40
2014,06,07,16,42,16.30
2014,06,07,16,43,16.30
2014,06,07,16,44,16.30
2014,06,07,16,45,16.30
2014,06,07,16,46,16.20
2014,06,07,16,47,16.10
2014,06,07,16,48,16.00
2014,06,07,16,49,15.90
2014,06,07,16,50,15.80
2014,06,07,16,51,15.70
2014,06,07,16,52,15.70
2014,06,07,16,53,15.60
2014,06,07,16,54,15.60
2014,06,07,16,55,15.60
2014,06,07,16,56,15.50
2014,06,07,16,57,15.50
2014,06,07,16,58,15.40
2014,06,07,16,59,15.30
2014,06,07,17,00,15.30
2014,06,07,17,01,15.30
2014,06,07,17,02,15.30
2014,06,07,17,03,15.20
2014,06,07,17,04,15.20
2014,06,07,17,05,15.10
2014,06,07,17,06,15.10
2014,06,07,17,07,15.10
2014,06,07,17,08,15.10
2014,06,07,17,09,15.10
2014,06,07,17,10,15.10
2014,06,07,17,11,15.10
2014,06,07,17,12,15.20
2014,06,07,17,13,15.20
2014,06,07,17,14,15.20
2014,06,07,17,15,15.20
2014,06,07,17,16,15.20
2014,06,07,17,17,15.20
2014,06,07,17,18,15.30
2014,06,07,17,19,15.30